ARIANE 2 DEB, 27039

Orbit data source: Space-Track

ARIANE 2 DEB, 27039 is space debris in HEO originally from a launch on Fri, 27 Jan 1989 UTC launched from the French Guiana (FRGUI). Debris objects in space refer to the collection of defunct objects orbiting the Earth. Examples of debris include non-operational satellites, rocket bodies, and fragments generated from explosions, collisions, or faulty payload assembly.

Loading next visibility...
Identifier
27039, 1989-006U
Orbit
HEO
Country
Flag of FRFR
Related business
Manufacturer
EADS/LV
Mission
Spacecraft
Bus & Motor
Unknown
Mass
Unknown
Launch date (UTC)
1989-01-27 (37 years ago)
Launch vehicle
Unknown
Launch site
French Guiana (FRGUI)
Object type
Payload
Rocket body
Debris
Shape & HBR
Unknown shape, 0.6 m
Radar Cross Section
Medium (>0.1 m² and <1 m²)

Expand to show TLE details & history
Last TLE update: 2 days ago

TLE from 2 days ago
0 ARIANE 2 DEB
1 27039U 89006U   26171.21943700 -.00000011  00000-0  96071-3 0  9996
2 27039   7.6856 154.7451 7176754 281.3268 299.5076  2.26242193206220
Epoch: 2026-06-20T05:15Z
TLE epoch observation values (Epoch: 2026-06-20T05:15:59.356Z)
Latitude
5.09493°
Longitude
-54.13768°
Altitude
21,476.356 km
Speed
3.515 km/s
True Right ascension
19h 33m 11s
True Declination
5° 05' 14"
Sunlit
Object was in daylight at epoch
Visualization orbit readout
Latitude
Unknown
Longitude
Unknown
Altitude
Unknown
Speed
Unknown
Apparent Right ascension
Unknown
Apparent Declination
Unknown
Sunlit
N/A
Visualization observer readout
Local Sidereal Time
23:21:51
Azimuth
Unknown
Elevation
Unknown
Doppler factor
Unknown
Orbital elements
Apogee altitude
35,731.926 km
Perigee altitude
543.256 km
Semi-major axis
24,515.728 km
Eccentricity
0.71768
Inclination
7.6856°
RAAN
154.7451°
Arg. of periapsis
281.3268°
True anomaly
217.03671°
Mean anomaly
299.5076°
Eccentric anomaly
259.12614°
Mean motion
0.56543 °/min
Orbital period
636.69 mins
BSTAR
0.00096071
Loading maneuver chart data...
Computing Atmospheric mass density...
Loading historical data...
Loading historical data...
Loading historical data...
Loading historical data...
Loading historical data...
Loading historical data...
Loading historical data...

Documentation

Showing up to 5 results
|